Location: Macksville High School
(37.9611°N, 99.9654°W)
Time: 01:51:35
(UTC+00:00)

Cosmos 1356 Rocket - Pass Details

Date: 17 January 2021
Orbit: 542 x 598 km, 81.2° (Epoch: 07 March)

Event Time Altitude Azimuth Distance (km) Brightness Sun altitude
Rises 12:08:34 0° 196° (SSW) 2,699 6.8 -20.5°
Reaches altitude 10° 12:10:43 10° 200° (SSW) 1,817 5.9 -20.0°
Maximum altitude 12:14:41 60° 281° (W) 640 3.3 -19.3°
Drops below altitude 10° 12:18:44 10° 1° (N) 1,859 5.9 -18.5°
Sets 12:20:58 0° 5° (N) 2,769 6.8 -18.1°
